Terminal Aerodrome Forecast
Issued by NWS

Home | Current Version | Previous Version | Text Only | Print | Product List | Glossary On
Versions: 1 2 3 4 5 6 7 8 9 10 11 12
000
FTAK31 PAFA 261125
TAFAOM
TAF
PAOM 261125Z 2612/2712 01009KT P6SM VCSH FEW035 SCT060 OVC080
     FM261800 08006KT P6SM BKN040 OVC080
     FM270000 12006KT P6SM -SHRA BKN040 OVC080
     FM270400 08004KT P6SM VCSH BKN040 OVC080=

USA.gov is the U.S. government's official web portal to all federal, state and local government web resources and services.